Aérodrome :
LOGIN :

S'inscrire | Disclaimer

   EN    FR    IT 

 










Légende :    VFR   VFR Marginal   IFR   IFR Intensif   IFR Très Intensif
Visi : 
Plafond : 
>= 8 km
>= 3000ft
5 à 8 km
1000 à 3000 ft
1500m à 5 km
500 à 1000 ft
800 à 1500m
200 à 500 ft
< 800m
< 200 ft
Symboles :   Orages  Brouillard  Fortes neiges  Fortes précipitations  Vent > 20 kt
SIGMETs :   Divers  Orages  Givrage  Turbulence  Onde Orograph.  Cendres Volcan.






- Altitude de l'aérodrome : 388 ft
- Code IATA : QYR


LFQB - Troyes Barberey

DERNIER METAR :
  • 270530Z AUTO 18013KT 9000 -RA OVC013 08/06 Q1013

METARs EXPIRÉS :
  • 270500Z AUTO 18013KT 9999 -RA BKN015 BKN030 BKN042 08/06 Q1014
  • 270430Z AUTO 18012KT 9999 BKN017 BKN030 BKN038 08/06 Q1014
  • 270400Z AUTO 18011KT 9999 FEW016/// BKN041/// OVC050/// ///TCU 08/06 Q1014
  • 270330Z AUTO 19012KT 9999 BKN048 OVC056 08/06 Q1014
  • 270300Z AUTO 19013KT 9999 -RA FEW016 SCT054 OVC066 08/06 Q1015

TAF N/A



MET'MAP, la Météo Aéronautique d'un coup d'oeil ! - Copyright ORBIFLY Décembre 2007 - Disclaimer

ORBIFLY MET'MAP TEAM :

Programmation & Développement : Alexandra Zaïnal
Sur une idée originale de : Baudouin d'Aumeries
Assistance à la programmation : Marc-Olivier Méhu
Soutien technique & logistique : Manuel Goepfert

Contact : metmap@orbifly.com




SOURCES & CREDITS :

   NOAA